Weather in Shreveport

United States     32°28′04″N   93°46′47″W
temp.,
°C
wind,
m/s
gust,
m/s
humid.,
%
clouds,
%
prec.,
mm/h
press.,
hPa
HPBL,
m
23 may, mon
mon2301:00+17ne3886100 0.0 1021444
04:00+15ne38850 0.0 1019307
07:00+15nne36840 0.0 1019252
10:00+20ne347152 0.0 1020589
13:00+26ene235717 0.0 10171157
16:00+28ene22515 0.0 10151381
19:00+26ene36647 0.0 1014375
22:00+23e4117526 0.0 1014583
24 may, tue
tue2401:00+21e31083100 0.0 1013466
04:00+20e31085100 0.0 1012495
07:00+20e4109116 0.0 1011380
10:00+25se5874100 0.0 1010994
13:00+23sse51292100 13.1 1008755
16:00+22sw71690100 4.4 10081083
19:00+25sse2686100 6.1 1007218
22:00+22s41493100 4.4 1008511
25 may, wed
wed2501:00+22sse4149643 4.6 1008917
04:00+22sse51589100 0.0 1007987
07:00+17wnw61595100 5.8 1014687
10:00+18w1289100 0.9 1013291
13:00+19sw3896100 2.5 1014522
16:00+18sse3796100 2.1 1011321
19:00+18s3997100 2.9 1011525
22:00+18s299697 0.0 1012472
26 may, thu
thu2601:00+18sse3898100 1.6 1013327
04:00+17s259938 0.5 1010196
07:00+17wsw399955 1.3 1011317
10:00+20w47806 0.1 1012614
13:00+24w595028 0.1 10111814
16:00+23wnw695311 0.0 10101644
19:00+21w486990 0.1 10111023
22:00+18w310780 0.0 1012548
27 may, fri
fri2701:00+17w38860 0.0 1012315
04:00+16w38890 0.0 1012296
07:00+16w39880 0.0 1013279
10:00+21wnw46651 0.0 1014917
13:00+26wnw46488 0.0 10141878
16:00+28nw47410 0.0 10111975
19:00+25nw36570 0.0 1011584
22:00+20wnw24740 0.0 101279